Location: C�bras
(39.9300°N, 8.5314°E)
Time: 10:25:36
(UTC+00:00)

Daily predictions for brighter satellites

Satellite Brightness Start Highest point End
(mag) Time Altitude Azimuth Time Altitude Azimuth Time Altitude Azimuth
Feng Yun 1-1 Rocket 4.4 17:36:23 10° SSE 17:42:13 80° ENE 17:48:09 10° NNW
Cosmos 2322 Rocket 2.5 17:38:32 10° S 17:43:51 47° ESE 17:49:12 10° NE
Meteor 1-25 Rocket 4.4 17:38:22 10° S 17:43:59 57° E 17:49:34 10° NNE
Cosmos 1633 Rocket 3.3 17:40:20 10° SSE 17:44:34 48° E 17:48:50 10° NNE
Cosmos 44 Rocket 4.3 17:42:58 10° NNW 17:47:35 30° NE 17:52:09 10° ESE
Cosmos 1707 Rocket 3.5 17:44:11 10° N 17:48:32 64° E 17:52:50 10° SSE
IRIS 4.0 17:46:23 10° W 17:49:54 73° N 17:52:24 10° E
Meteor 1-27 Rocket 4.1 17:44:29 10° NNW 17:49:59 70° W 17:55:30 10° S
CZ-2C R/B 3.5 17:45:54 10° S 17:51:41 80° WSW 17:57:18 10° NNW
MOS 1 Rocket 4.2 17:46:57 10° N 17:51:57 60° WNW 17:57:11 10° SSW
CZ-4B R/B 2.2 17:53:03 10° N 17:56:00 49° WNW 17:58:59 10° SSW
Cosmos 2227 4.3 17:53:22 10° NNW 17:59:10 90° ENE 18:04:55 10° SSE
CZ-3 Stage 3 4.1 17:53:57 10° WSW 18:00:21 25° SSW 18:02:52 10° SE
Okean-O 2.7 17:58:34 10° SSE 18:02:55 59° ENE 18:07:17 10° N
Cosmos 2219 Rocket 3.8 18:00:52 10° ESE 18:03:04 12° E 18:04:10 12° E
CZ-4 R/B 1.2 18:02:20 10° SSE 18:06:10 81° ENE 18:10:04 10° N
Okean 1 3.6 18:03:37 10° N 18:07:30 45° E 18:11:23 10° SSE
SL-16 R/B 2.3 18:01:56 10° SSW 18:07:36 86° WNW 18:13:19 10° NNE
ARGOS 3.2 18:08:18 10° SSE 18:13:37 61° ENE 18:18:58 10° N
Cosmos 2263 Rocket 2.7 18:08:10 10° NNW 18:13:41 64° WSW 18:19:09 10° S
Cosmos 1515 3.6 18:14:57 10° N 18:18:45 66° E 18:22:32 10° SSE
ATLAS CENTAUR R/B 1.2 18:16:45 10° SSW 18:20:15 50° ESE 18:23:27 12° NE
SJ-11-01 4.3 18:15:42 10° SSE 18:20:22 90° ESE 18:25:05 10° NNW
Cosmos 1470 Rocket 3.5 18:18:15 10° S 18:22:42 73° E 18:27:10 10° NNE
SL-4 R/B 4.0 18:21:36 10° NNW 18:23:13 13° N 18:24:49 10° NNE
SL-08 RB Rocket 3.8 18:19:15 10° SSE 18:23:35 50° ENE 18:27:59 10° N
Cosmos 2084 Rocket 4.2 18:19:47 10° NNW 18:23:50 36° NE 18:26:12 21° ESE
Cosmos 2237 4.2 18:19:15 10° SSW 18:24:54 70° ESE 18:30:38 10° NNE
CZ-2C R/B 2.6 18:23:13 10° NNE 18:28:41 69° ESE 18:34:00 10° S
Cosmos 1689 Rocket 2.8 18:26:55 10° N 18:29:43 52° WNW 18:32:31 10° SSW
Cosmos 1992 Rocket 4.0 18:26:14 10° SSW 18:31:28 84° WNW 18:36:44 10° NNE
ASTEX 1 4.4 18:32:57 10° NNE 18:36:25 24° ENE 18:36:25 24° ENE
H-2A R/B 2.9 18:32:00 10° S 18:37:19 57° W 18:42:42 10° NNW
SAR-Lupe-4 4.3 18:33:55 10° N 18:37:26 55° WNW 18:40:56 10° SSW
Cosmos 1486 Rocket 4.1 18:32:28 10° NNW 18:37:47 83° WSW 18:43:05 10° SSE
Cosmos 1703 Rocket 4.0 18:34:26 10° N 18:38:33 38° ENE 18:40:23 26° SE
Cosmos 968 Rocket 3.8 18:33:19 10° NNW 18:38:35 71° WSW 18:43:48 10° S
Meteor 2-12 Rocket 4.4 18:33:14 10° S 18:39:17 90° W 18:45:24 10° N
Cosmos 1933 Rocket 3.4 18:39:24 10° S 18:43:43 82° E 18:48:07 10° N
DMSP B5D2-2 4.0 18:38:33 10° NNE 18:43:44 60° E 18:48:51 10° S
USA 234 3.2 18:37:30 10° NE 18:44:05 85° SE 18:50:39 10° SW
CSL-04 Rocket 3.7 18:38:51 10° SSE 18:44:25 90° N 18:49:58 10° NNW
CSL-04 Debris 4.2 18:39:06 10° SSE 18:44:32 84° WSW 18:50:01 10° NNW
OBJECT-B 3.4 18:47:23 10° NNE 18:47:23 10° NNE 18:47:25 10° NNE
SeaSat 1 2.9 18:41:54 10° NNE 18:46:47 62° WNW 18:51:38 10° SW
Meteor 1-5 Rocket 4.0 18:42:26 10° S 18:47:40 63° E 18:53:04 10° NNE
Aureole 2 Rocket 2.7 18:45:33 10° NNW 18:47:11 34° N 18:47:11 34° N
Cosmos 1844 Rocket 2.8 18:43:47 10° NNW 18:49:13 51° ENE 18:51:49 29° ESE
Cosmos 1666 2.7 18:45:49 10° S 18:49:23 49° E 18:52:59 10° NNE
Cosmos 2333 4.3 18:44:19 10° S 18:49:43 49° ESE 18:55:11 10° NE
ERS-2 3.9 18:47:35 10° N 18:50:55 34° WNW 18:54:14 10° SW
Cosmos 2242 Rocket 3.5 18:47:18 10° N 18:51:47 62° E 18:54:51 19° SSE
Nadezhda 3 Rocket 4.5 18:50:38 10° NNW 18:56:55 65° W 19:03:12 10° S
Cosmos 1844 3.9 18:52:12 10° NNW 18:57:49 50° ENE 18:59:37 37° ESE
Cosmos 2360 Rocket 2.3 18:52:47 10° SSW 18:58:24 75° WNW 19:04:06 10° NNE
Cosmos 2278 Rocket 4.1 19:00:30 10° NNE 19:02:28 14° NE 19:02:28 14° NE
Cosmos 1354 Rocket 3.9 18:58:25 10° NNW 19:03:41 82° ENE 19:06:39 26° SSE
GP-B 3.4 19:00:20 10° S 19:04:43 69° W 19:09:10 10° N
Cosmos 2333 Rocket 2.2 18:59:35 10° S 19:05:03 52° ESE 19:08:25 23° NE
Meteor 2-4 Rocket 3.8 19:01:09 10° N 19:07:02 84° W 19:12:58 10° S
Lacrosse 4 Rocket 3.3 19:06:13 10° S 19:07:35 19° S 19:07:35 19° S
Cosmos 1777 Rocket 4.4 19:09:22 10° N 19:13:54 43° NE 19:13:54 43° NE
Cosmos 1503 Rocket 4.2 19:09:20 10° NNW 19:14:29 68° WSW 19:18:07 19° S
Ariane Rocket 2.9 19:19:27 64° E 19:19:39 64° ENE 19:24:42 10° N
DELTA 2 R/B (1) 4.3 19:14:47 10° SW 19:19:20 36° SSE 19:19:20 36° SSE
SJ 16-02 3.9 19:24:26 10° NNE 19:24:29 10° NNE 19:24:29 10° NNE
SJ-6B 3.3 19:28:28 60° NW 19:28:28 60° NW 19:31:55 10° NNW
Cosmos 2322 Rocket 4.3 19:23:32 10° WSW 19:28:06 25° NW 19:32:43 10° N
MOS 1 4.1 19:27:32 59° SE 19:28:37 77° ENE 19:34:18 10° N
Okean 1-7 3.6 19:26:10 10° NNW 19:30:27 57° W 19:31:27 44° SW
SL-8 Rocket 4.2 19:26:18 10° SSW 19:32:32 71° W 19:38:45 10° N
COSMOS 2428 3.4 19:29:15 10° SSW 19:32:47 39° S 19:32:47 39° S
Meteor 1-11 Rocket 3.6 19:29:15 10° S 19:35:00 88° W 19:40:41 10° N
SME Rocket 4.3 19:32:51 10° N 19:40:42 69° WNW 19:45:48 10° SSW
Cosmos 2219 Rocket 2.1 19:40:37 10° SSW 19:46:09 81° WNW 19:46:09 81° WNW
Cosmos 2366 rocket 4.2 19:40:39 10° SSW 19:46:54 68° W 19:53:15 10° N
IRS-1A Rocket 4.4 19:46:50 59° SSW 19:47:47 71° WSW 19:53:22 10° NNW
ATLAS CENTAUR R/B 4.0 19:57:27 10° WNW 19:59:24 14° NW 19:59:42 14° NW
Cosmos 1727 Rocket 4.3 20:05:35 10° N 20:10:41 60° NW 20:10:41 60° NW
Cosmos 2278 Rocket 4.3 20:42:41 10° NNW 20:44:20 20° NNW 20:44:20 20° NNW
Cosmos 2333 Rocket 4.2 20:45:09 10° WSW 20:49:39 24° NW 20:50:48 22° NW
